Regional Weather Roundup
Issued by NWS Sioux Falls, SD

Home | Current Version | Previous Version | Graphics & Text | Print | Product List | Glossary Off
Versions: 1 2 3 4 5 6 7 8 9 10 11 12 13 14 15 16 17 18 19 20 21 22 23 24 25 26 27 28 29 30 31 32 33 34 35 36 37 38 39 40 41 42 43 44 45 46 47 48 49 50

000
ASUS43 KFSD 240802
RWRFSD

WEATHER ROUNDUP FOR SE SOUTH DAKOTA/SW MINNESOTA/NW IOWA
NATIONAL WEATHER SERVICE SIOUX FALLS SD
300 AM CDT TUE MAY 24 2016

NOTE: "FAIR" INDICATES FEW OR NO CLOUDS BELOW 12,000 FEET WITH NO
SIGNIFICANT WEATHER AND OR OBSTRUCTIONS TO VISIBILITY.


SDZ038>040-050-052>070-240900-
SOUTHEAST SOUTH DAKOTA

CITY           SKY/WX    TMP DP  RH WIND       PRES   REMARKS
BROOKINGS      CLEAR     59  58  96 S6        29.78S FOG
CHAMBERLAIN    NOT AVBL
HURON          CLOUDY    58  57  97 SE6       29.74F
MADISON        FOG       59  59 100 S5        29.78F VSB 1
MITCHELL       CLOUDY    61  60  97 SE3       29.75R FOG
SIOUX FALLS    CLEAR     62  59  90 S6        29.78S
WINNER         FAIR      56  44  64 N3        29.77R
YANKTON        CLEAR     63  57  82 S7        29.76F
$$

MNZ071-072-080-081-089-090-097-098-240900-
SOUTHWEST MINNESOTA

CITY           SKY/WX    TMP DP  RH WIND       PRES   REMARKS
FAIRMONT       CLOUDY    63  59  88 S10       29.80S
JACKSON        CLOUDY    63  59  88 S7        29.81S FOG
LUVERNE        FOG       59  55  88 CALM      29.79F VSB<1/4
MARSHALL       CLEAR     63  60  90 SW12      29.77F
MONTEVIDEO     MOCLDY    61  57  88 W5        29.78R
PIPESTONE      FOG       63  61  94 S6        29.80S VSB<1/4
REDWOOD FALLS  CLOUDY    61  59  93 S7        29.77S
TRACY          MOCLDY    63  63 100 SW13      29.79S
WINDOM         CLOUDY    63  61  94 CALM      29.80S
WORTHINGTON    CLOUDY    63  61  93 SW13      29.80F
$$

IAZ001>003-012>014-020>022-031-032-NEZ013-014-SDZ071-240900-
NORTHWEST IOWA

CITY           SKY/WX    TMP DP  RH WIND       PRES   REMARKS
CHEROKEE       CLOUDY    61  61 100 S5        29.82R
DENISON        CLOUDY    63  59  88 S8G15     29.79R
ESTHERVILLE    CLOUDY    61  59  93 S9        29.80S
SIOUX CITY       N/A     63  60  90 SE7       29.79F
SPENCER        CLOUDY    63  59  87 SW7       29.81S
STORM LAKE     CLOUDY    63  59  88 SW12      29.83S
$$

ABBREVIATIONS USED IN REMARKS
   TC - TEMPERATURE IN CELSIUS
  WCI - WIND CHILL INDEX
   HX - HEAT INDEX
  VSB - VISIBILITY





USA.gov is the U.S. government's official web portal to all federal, state and local government web resources and services.